Pensacola, FL

2:06 PM CST on February 06, 2016 (GMT -0600)
Pensacola Regional

Weather History for KPNS - February, 2013

Change the Weather History Date:

Sunday, February 10, 2013

  Actual Average Record
Temperature  
Mean Temperature 63 °F 54 °F  
Max Temperature 71 °F 63 °F 80 °F (1957)
Min Temperature 54 °F 45 °F 23 °F (1971)
Degree Days  
Heating Degree Days 2 12  
Month to date heating degree days 63 123  
Since 1 July heating degree days 735 1134  
Cooling Degree Days 0 0  
Month to date cooling degree days 2 0  
Year to date cooling degree days 32 6  
Growing Degree Days 12 (Base 50)    
Moisture  
Dew Point 61 °F    
Average Humidity 89    
Maximum Humidity 97    
Minimum Humidity 81    
Precipitation  
Precipitation 0.05 in 0.18 in 4.55 in (1981)
Month to date precipitation 3.60 1.77  
Year to date precipitation 5.96 6.40  
Snow  
Snow 0.00 in 0.00 in - ()
Month to date snowfall 0.0 0.0  
Since 1 July snowfall 0.0 0.0  
Snow Depth 0.00 in    
Sea Level Pressure  
Sea Level Pressure 30.09 in    
Wind  
Wind Speed 14 mph (SE)    
Max Wind Speed 22 mph    
Max Gust Speed 30 mph    
Visibility 8 miles    
Events Rain    
T = Trace of Precipitation, MM = Missing Value Source: NWS Daily Summary

Daily Weather History Graph

Daily Weather History Graph

Search for Another Location

Airport or City:

Trip Planner

Search our weather history database for the weather conditions in past years. The results will help you decide how hot, cold, wet, or windy it might be!

Date:

Astronomy

Feb. 10, 2013 Rise Set
Actual Time 6:33 AM CST 5:33 PM CST
Civil Twilight 6:08 AM CST 5:57 PM CST
Nautical Twilight 5:40 AM CST 6:26 PM CST
Astronomical Twilight 5:11 AM CST 6:54 PM CST
Moon 6:28 AM CST (2/10) 6:16 PM CST (2/10)
Length of Visible Light 11h 49m
Length of Day
10h 59m
New Moon, 0% of the Moon is Illuminated
Feb 10
New Moon
Feb 17
First Quarter
Feb 25
Full
Mar 4
Last Quarter
Mar 11
New

Hourly Weather History & Observations

Time (CST) Temp. Dew Point Humidity Pressure Visibility Wind Dir Wind Speed Gust Speed Precip Events Conditions
12:53 AM 54.0 °F 52.0 °F 93% 30.15 in 7.0 mi ENE 4.6 mph - N/A   Clear
1:53 AM 55.0 °F 52.0 °F 89% 30.14 in 10.0 mi ENE 6.9 mph - N/A   Clear
2:53 AM 55.0 °F 52.0 °F 89% 30.14 in 10.0 mi ENE 3.5 mph - N/A   Clear
3:53 AM 55.9 °F 52.0 °F 87% 30.12 in 10.0 mi East 8.1 mph - N/A   Clear
4:53 AM 55.9 °F 53.1 °F 90% 30.11 in 10.0 mi East 8.1 mph - N/A   Partly Cloudy
5:53 AM 55.9 °F 54.0 °F 93% 30.12 in 10.0 mi East 9.2 mph - N/A   Mostly Cloudy
6:03 AM 55.4 °F 53.6 °F 94% 30.10 in 9.0 mi East 8.1 mph - N/A   Overcast
6:53 AM 61.0 °F 59.0 °F 93% 30.09 in 8.0 mi ESE 15.0 mph 25.3 mph N/A   Overcast
7:53 AM 63.0 °F 60.1 °F 90% 30.13 in 8.0 mi ESE 16.1 mph 23.0 mph N/A   Overcast
8:04 AM 62.6 °F 60.8 °F 94% 30.13 in 8.0 mi ESE 13.8 mph 23.0 mph N/A   Overcast
8:22 AM 62.6 °F 60.8 °F 94% 30.13 in 8.0 mi ESE 15.0 mph - N/A   Overcast
8:53 AM 64.0 °F 60.1 °F 87% 30.15 in 8.0 mi ESE 13.8 mph - N/A   Overcast
9:00 AM 64.4 °F 60.8 °F 88% 30.14 in 8.0 mi ESE 15.0 mph - N/A   Overcast
9:11 AM 64.4 °F 60.8 °F 88% 30.14 in 8.0 mi ESE 15.0 mph - N/A   Overcast
9:33 AM 64.4 °F 60.8 °F 88% 30.14 in 3.0 mi ESE 15.0 mph - N/A   Overcast
9:53 AM 64.9 °F 61.0 °F 87% 30.14 in 3.0 mi ESE 16.1 mph - N/A   Overcast
10:53 AM 66.0 °F 62.1 °F 87% 30.13 in 3.0 mi ESE 15.0 mph - N/A   Overcast
11:53 AM 66.9 °F 63.0 °F 87% 30.11 in 8.0 mi SE 13.8 mph 21.9 mph N/A   Overcast
12:53 PM 68.0 °F 63.0 °F 84% 30.05 in 8.0 mi SE 16.1 mph 26.5 mph N/A   Overcast
1:53 PM 68.0 °F 64.0 °F 87% 30.01 in 7.0 mi SE 17.3 mph 25.3 mph N/A   Overcast
2:53 PM 69.1 °F 64.9 °F 87% 30.00 in 7.0 mi SE 17.3 mph 25.3 mph N/A   Overcast
3:53 PM 69.1 °F 64.9 °F 87% 30.04 in 7.0 mi SSE 16.1 mph - 0.00 in   Overcast
4:53 PM 68.0 °F 64.9 °F 90% 30.02 in 7.0 mi SSE 18.4 mph 26.5 mph 0.00 in   Overcast
5:53 PM 69.1 °F 66.0 °F 90% 30.03 in 8.0 mi SSE 18.4 mph 25.3 mph 0.00 in   Overcast
6:43 PM 69.8 °F 66.2 °F 88% 30.02 in 7.0 mi SSE 15.0 mph 27.6 mph N/A   Overcast
6:53 PM 69.1 °F 66.0 °F 90% 30.03 in 7.0 mi South 15.0 mph - N/A   Overcast
7:53 PM 70.0 °F 66.9 °F 90% 30.05 in 7.0 mi South 19.6 mph 25.3 mph N/A   Overcast
8:53 PM 70.0 °F 66.9 °F 90% 30.06 in 8.0 mi South 17.3 mph - N/A   Overcast
9:53 PM 69.8 °F 66.2 °F 88% 30.04 in 8.0 mi South 17.3 mph 25.3 mph N/A   Overcast
10:53 PM 71.1 °F 66.9 °F 87% 30.06 in 8.0 mi South 13.8 mph - N/A   Overcast
11:53 PM 71.1 °F 68.0 °F 90% 30.05 in 5.0 mi SSW 11.5 mph - 0.03 in Rain Light Rain